DW8567 Weather Reports


time (UTC)temp
F
wind
direction
speed
knots
gust
knots
rain 1hr
in
rain 24hr
in
rain mn
in
humidity
%
barometer
mb
20260506192215 66 230 8.7 15.6 0.00 0.05 0.05 79 1007.7
20260506191709 66 220 7.8 17.4 0.00 0.05 0.05 79 1007.6
20260506191204 66 200 7.8 17.4 0.00 0.05 0.05 79 1007.7
20260506190928 66 217 7.0 13.9 0.00 0.05 0.05 79 1007.6
20260506190151 66 219 5.2 11.3 0.00 0.05 0.05 80 1007.6
20260506185645 66 191 5.2 11.3 0.00 0.05 0.05 80 1007.7
20260506185140 66 205 5.2 11.3 0.00 0.05 0.05 80 1007.8
20260506184633 65 195 5.2 15.6 0.00 0.05 0.05 81 1007.8
20260506184127 65 190 6.1 15.6 0.00 0.05 0.05 81 1007.9
20260506183621 65 223 8.7 18.2 0.00 0.05 0.05 80 1008.0
20260506183115 65 186 10.4 19.1 0.00 0.05 0.05 80 1007.9
20260506182610 66 182 10.4 19.1 0.00 0.05 0.05 79 1007.9
20260506182103 66 219 9.6 17.4 0.00 0.05 0.05 78 1008.0
20260506181557 66 196 8.7 17.4 0.00 0.05 0.05 78 1007.9
20260506181051 66 197 8.7 17.4 0.00 0.05 0.05 78 1007.9
20260506180548 66 242 9.6 18.2 0.00 0.05 0.05 77 1007.9
20260506180542 66 174 10.4 24.3 0.00 0.05 0.05 77 1008.0
20260506175533 66 222 10.4 24.3 0.00 0.05 0.05 77 1008.1
20260506175259 66 223 10.4 19.1 0.00 0.05 0.05 77 1008.1
20260506174752 66 209 10.4 20.9 0.00 0.05 0.05 78 1008.1
20260506174018 66 189 9.6 20.9 0.01 0.05 0.05 79 1008.3
20260506174011 65 208 8.7 20.0 0.01 0.05 0.05 79 1008.4
20260506173004 65 265 7.8 15.6 0.01 0.05 0.05 79 1008.4
20260506172457 66 217 8.7 18.2 0.02 0.05 0.05 79 1008.4
20260506171952 66 197 8.7 18.2 0.02 0.05 0.05 79 1008.5
20260506171446 66 207 8.7 18.2 0.03 0.05 0.05 79 1008.4
20260506170941 66 222 7.8 18.2 0.03 0.05 0.05 79 1008.4
20260506170433 66 207 7.0 14.8 0.04 0.05 0.05 80 1008.4
20260506165927 66 236 7.0 12.2 0.04 0.05 0.05 81 1008.4
20260506165422 66 208 6.1 13.0 0.04 0.05 0.05 82 1008.4
20260506165146 66 211 6.1 13.0 0.04 0.05 0.05 82 1008.5
20260506164410 66 238 6.1 12.2 0.04 0.05 0.05 83 1008.6
20260506163904 65 179 6.1 13.0 0.04 0.04 0.04 83 1008.6
20260506163357 65 185 5.2 13.0 0.04 0.04 0.04 82 1008.8
20260506162851 65 196 6.1 12.2 0.04 0.04 0.04 81 1009.1
20260506162345 65 227 6.1 12.2 0.03 0.03 0.03 80 1009.3
20260506161839 66 205 7.0 14.8 0.03 0.03 0.03 79 1009.4
20260506161333 66 226 7.8 14.8 0.02 0.02 0.02 77 1009.6
20260506160828 66 248 7.8 14.8 0.01 0.01 0.01 76 1009.7
20260506160321 66 199 8.7 18.2 0.01 0.01 0.01 76 1009.9
20260506155817 66 225 7.8 18.2 0.01 0.01 0.01 75 1010.0
20260506155318 66 221 7.8 16.5 0.01 0.01 0.01 76 1009.9
20260506154815 66 221 8.7 16.5 0.01 0.01 0.01 75 1010.0
20260506154316 67 205 7.0 15.6 0.01 0.01 0.01 74 1010.0
20260506153816 67 247 7.8 21.7 0.00 0.00 0.00 73 1009.9
20260506153316 67 228 8.7 21.7 0.00 0.00 0.00 71 1009.7
20260506152816 67 218 9.6 22.6 0.00 0.00 0.00 70 1009.8
20260506152316 68 233 9.6 22.6 0.00 0.00 0.00 70 1009.8
20260506151818 69 211 9.6 18.2 0.00 0.00 0.00 67 1009.8
20260506151814 68 169 9.6 18.2 0.00 0.00 0.00 68 1009.9
20260506150812 69 210 9.6 18.2 0.00 0.00 0.00 65 1009.4
20260506150313 69 155 10.4 21.7 0.00 0.00 0.00 65 1009.6
20260506150043 69 196 9.6 21.7 0.00 0.00 0.00 65 1009.7
20260506145545 69 271 8.7 14.8 0.00 0.00 0.00 66 1009.8
20260506144813 69 243 9.6 14.8 0.00 0.00 0.00 66 1009.9
20260506144314 69 229 9.6 19.1 0.00 0.00 0.00 65 1009.9
20260506143806 69 216 9.6 19.1 0.00 0.00 0.00 64 1010.0
20260506143307 69 223 9.6 20.0 0.00 0.00 0.00 64 1010.0
20260506142804 69 156 10.4 24.3 0.00 0.00 0.00 63 1009.8
20260506142535 69 217 10.4 24.3 0.00 0.00 0.00 63 1009.8
20260506141805 69 221 10.4 20.9 0.00 0.00 0.00 63 1009.7
20260506141305 69 216 10.4 17.4 0.00 0.00 0.00 63 1009.8
20260506140805 69 227 10.4 18.2 0.00 0.00 0.00 64 1009.8
20260506140539 69 236 8.7 19.1 0.00 0.00 0.00 64 1009.7
20260506135805 69 190 8.7 19.1 0.00 0.00 0.00 65 1009.7
20260506135306 69 242 9.6 19.1 0.00 0.00 0.00 66 1009.7
20260506134801 68 182 9.6 19.1 0.00 0.00 0.00 66 1009.7
20260506134302 68 223 8.7 19.1 0.00 0.00 0.00 66 1009.6
20260506133801 68 232 8.7 22.6 0.00 0.00 0.00 67 1009.7
20260506133302 68 180 8.7 22.6 0.00 0.00 0.00 67 1009.7
20260506133032 68 205 8.7 22.6 0.00 0.00 0.00 67 1009.7
20260506132301 68 214 9.6 22.6 0.00 0.00 0.00 67 1009.7
20260506131803 68 183 9.6 20.9 0.00 0.00 0.00 67 1009.8
20260506131534 68 192 10.4 20.9 0.00 0.00 0.00 67 1009.9
20260506130802 68 213 10.4 20.9 0.00 0.00 0.00 67 1009.9
20260506130528 68 226 9.6 18.2 0.00 0.00 0.00 68 1010.1
20260506125756 68 211 8.7 18.2 0.00 0.00 0.00 68 1010.0
20260506125258 68 207 9.6 19.1 0.00 0.00 0.00 68 1009.8
20260506124758 68 229 9.6 19.1 0.00 0.00 0.00 68 1009.9
20260506124257 68 237 8.7 20.0 0.00 0.00 0.00 69 1010.0
20260506123758 67 209 10.4 20.0 0.00 0.00 0.00 69 1009.9
20260506123259 68 191 10.4 20.0 0.00 0.00 0.00 68 1009.8
20260506122759 67 196 8.7 18.2 0.00 0.00 0.00 69 1009.8
20260506122259 67 200 8.7 18.2 0.00 0.00 0.00 70 1009.7
20260506121753 67 193 7.8 15.6 0.00 0.00 0.00 70 1009.7
20260506121255 66 232 7.8 17.4 0.00 0.00 0.00 71 1009.8
20260506121026 66 178 7.8 17.4 0.00 0.00 0.00 71 1010.0
20260506120252 66 211 8.7 16.5 0.00 0.00 0.00 72 1010.0
20260506115754 66 184 9.6 16.5 0.00 0.00 0.00 71 1009.8
20260506115252 66 201 8.7 15.6 0.00 0.00 0.00 71 1010.0
20260506114752 66 221 8.7 17.4 0.00 0.00 0.00 72 1010.0
20260506114252 66 214 8.7 18.2 0.00 0.00 0.00 72 1009.9
20260506113751 66 194 7.8 18.2 0.00 0.00 0.00 72 1009.9
20260506113251 66 181 8.7 14.8 0.00 0.00 0.00 72 1010.0
20260506112750 65 153 8.7 14.8 0.00 0.00 0.00 72 1010.1
20260506112251 65 238 7.0 15.6 0.00 0.00 0.00 72 1009.9
20260506111745 65 206 8.7 20.0 0.00 0.00 0.00 72 1010.0
20260506111239 65 232 8.7 20.0 0.00 0.00 0.00 72 1009.9
20260506110733 65 199 8.7 19.1 0.00 0.00 0.00 73 1009.9
20260506110227 65 194 7.8 17.4 0.00 0.00 0.00 73 1009.9
20260506105721 65 176 7.8 17.4 0.00 0.00 0.00 74 1009.9
20260506105214 65 206 7.8 17.4 0.00 0.00 0.00 74 1009.9
20260506104709 65 180 7.8 15.6 0.00 0.00 0.00 74 1009.9
20260506104203 65 198 8.7 15.6 0.00 0.00 0.00 75 1009.8
20260506103928 65 194 7.0 13.9 0.00 0.00 0.00 75 1010.0
20260506103155 64 211 6.1 12.2 0.00 0.00 0.00 76 1009.9
20260506102652 64 171 7.0 18.2 0.00 0.00 0.00 76 1009.8
20260506102152 64 166 7.0 18.2 0.00 0.00 0.00 76 1009.8
20260506101653 64 178 7.0 14.8 0.00 0.00 0.00 76 1009.9
20260506101152 64 194 7.0 14.8 0.00 0.00 0.00 76 1009.9
20260506100652 64 207 6.1 13.0 0.00 0.00 0.00 76 1010.0
20260506100153 65 204 6.1 13.0 0.00 0.00 0.00 76 1010.0
20260506095653 65 188 6.1 13.0 0.00 0.00 0.00 76 1010.0
20260506095154 65 94 6.1 13.0 0.00 0.00 0.00 76 1009.9
20260506094651 65 221 6.1 13.0 0.00 0.00 0.00 76 1009.8
20260506094150 65 186 6.1 13.0 0.00 0.00 0.00 76 1009.9
20260506093650 65 238 7.0 13.0 0.00 0.00 0.00 76 1009.8
20260506093150 65 194 7.8 16.5 0.00 0.00 0.00 76 1009.8
20260506092652 65 223 7.8 16.5 0.00 0.00 0.00 76 1009.7
20260506092153 65 224 7.0 12.2 0.00 0.00 0.00 75 1009.8
20260506091924 65 192 6.1 14.8 0.00 0.00 0.00 75 1009.7
20260506091152 65 194 7.0 13.9 0.00 0.00 0.00 75 1009.8
20260506090646 65 194 6.1 13.9 0.00 0.00 0.00 75 1009.9
20260506090141 65 209 6.1 13.9 0.00 0.00 0.00 75 1010.0
20260506085634 65 198 6.1 13.9 0.00 0.00 0.00 75 1009.9
20260506085128 65 190 7.0 13.9 0.00 0.00 0.00 75 1009.9
20260506084621 65 204 7.0 13.9 0.00 0.00 0.00 75 1009.9
20260506084117 65 198 7.0 13.9 0.00 0.00 0.00 75 1010.0
20260506083610 66 213 6.1 13.0 0.00 0.00 0.00 75 1010.0
20260506083104 66 184 7.0 13.0 0.00 0.00 0.00 74 1010.1
20260506082558 66 183 7.8 13.9 0.00 0.00 0.00 74 1010.1
20260506082053 66 157 8.7 17.4 0.00 0.00 0.00 74 1010.0
20260506081546 66 194 7.8 17.4 0.00 0.00 0.00 74 1010.1
20260506081040 66 183 7.8 14.8 0.00 0.00 0.00 74 1010.1
20260506080535 66 221 7.8 14.8 0.00 0.00 0.00 74 1010.1
20260506073459 66 209 6.1 12.2 0.00 0.00 0.00 74 1010.1
20260506073224 66 193 6.1 11.3 0.00 0.00 0.00 74 1010.2
20260506072446 66 200 6.1 11.3 0.00 0.00 0.00 74 1010.2
20260506071941 66 188 6.1 11.3 0.00 0.00 0.00 74 1010.3
20260506071705 66 187 5.2 11.3 0.00 0.00 0.00 74 1010.3
20260506070928 66 227 4.3 9.6 0.00 0.00 0.00 74 1010.3
20260506070422 66 161 4.3 9.6 0.00 0.00 0.00 74 1010.4
20260506062335 67 192 4.3 8.7 0.00 0.00 0.00 72 1010.5
20260506061829 67 196 4.3 11.3 0.00 0.00 0.00 71 1010.5
20260506061323 68 189 5.2 11.3 0.00 0.00 0.00 71 1010.5
20260506060817 68 195 5.2 10.4 0.00 0.00 0.00 71 1010.5
20260506060310 68 189 5.2 10.4 0.00 0.00 0.00 71 1010.5
20260506051210 69 225 7.8 13.9 0.00 0.00 0.00 68 1010.9
20260506050704 69 186 7.0 13.0 0.00 0.00 0.00 68 1011.0
20260506050159 69 213 6.1 13.0 0.00 0.00 0.00 68 1011.0
20260506044923 69 217 7.0 14.8 0.00 0.00 0.00 67 1011.0
20260506044151 69 251 7.0 13.0 0.00 0.00 0.00 66 1011.0
20260506043651 69 257 6.1 13.0 0.00 0.00 0.00 66 1011.0
20260506043150 69 207 6.1 12.2 0.00 0.00 0.00 66 1010.9
20260506042651 69 182 7.8 14.8 0.00 0.00 0.00 66 1011.0
20260506042151 69 227 7.8 15.6 0.00 0.00 0.00 65 1010.9
20260506041652 69 207 7.0 15.6 0.00 0.00 0.00 65 1011.0
20260506041150 69 213 7.8 19.1 0.00 0.00 0.00 64 1011.0
20260506040924 69 182 8.7 19.1 0.00 0.00 0.00 64 1010.9
20260506040150 69 194 8.7 16.5 0.00 0.00 0.00 64 1010.9
20260506035922 69 178 7.8 15.6 0.00 0.00 0.00 63 1010.8
20260506035150 70 184 8.7 15.6 0.00 0.00 0.00 63 1010.8
20260506034652 70 215 8.7 15.6 0.00 0.00 0.00 63 1010.8
20260506034147 70 192 8.7 16.5 0.00 0.00 0.00 63 1010.7
20260506033648 70 218 9.6 22.6 0.00 0.00 0.00 62 1010.8
20260506033148 70 170 8.7 22.6 0.00 0.00 0.00 62 1010.8
20260506032648 70 205 7.8 17.4 0.00 0.00 0.00 62 1010.8
20260506032149 70 227 8.7 17.4 0.00 0.00 0.00 61 1010.9
20260506031648 70 245 8.7 17.4 0.00 0.00 0.00 61 1010.9
20260506031147 70 210 9.6 17.4 0.00 0.00 0.00 61 1010.9
20260506030648 70 203 8.7 18.2 0.00 0.00 0.00 61 1010.9
20260506030148 71 218 8.7 18.2 0.00 0.00 0.00 60 1011.0
20260506025649 71 200 8.7 18.2 0.00 0.00 0.00 60 1010.9
20260506025148 71 161 8.7 18.2 0.00 0.00 0.00 59 1010.9
20260506024647 71 180 8.7 18.2 0.00 0.00 0.00 58 1010.9
20260506024148 71 195 9.6 18.2 0.00 0.00 0.00 59 1011.0
20260506023653 71 219 10.4 18.2 0.00 0.00 0.00 58 1010.9
20260506023647 71 188 9.6 18.2 0.00 0.00 0.00 58 1010.9
20260506022649 71 214 9.6 19.1 0.00 0.00 0.00 57 1010.9
20260506022149 71 148 8.7 19.1 0.00 0.00 0.00 57 1010.9
20260506021648 71 215 7.8 18.2 0.00 0.00 0.00 56 1011.0
20260506021148 72 227 7.8 16.5 0.00 0.00 0.00 56 1011.0
20260506020640 71 211 7.8 16.5 0.00 0.00 0.00 57 1010.9
20260506020135 71 203 7.0 16.5 0.00 0.00 0.00 57 1010.9
20260506015635 71 157 7.8 14.8 0.00 0.00 0.00 57 1011.0
20260506015137 71 218 7.8 14.8 0.00 0.00 0.00 57 1010.9
20260506014905 71 189 7.0 14.8 0.00 0.00 0.00 56 1010.8
20260506014135 72 333 7.0 14.8 0.00 0.00 0.00 56 1010.7
20260506013633 72 204 7.0 14.8 0.00 0.00 0.00 56 1010.7
20260506013133 72 192 7.0 15.6 0.00 0.00 0.00 56 1010.7
20260506012635 72 176 7.8 15.6 0.00 0.00 0.00 56 1010.6
20260506012403 72 167 7.0 14.8 0.00 0.00 0.00 56 1010.6
20260506011906 72 184 7.0 14.8 0.00 0.00 0.00 56 1010.5
20260506011132 72 204 7.8 14.8 0.00 0.00 0.00 56 1010.5
20260506010904 73 168 7.0 13.9 0.00 0.00 0.00 55 1010.4
20260506010133 73 176 7.8 15.6 0.00 0.00 0.00 54 1010.4
20260506005629 74 175 7.0 15.6 0.00 0.00 0.00 52 1010.4
20260506005131 74 225 7.0 13.0 0.00 0.00 0.00 50 1010.4
20260506004633 74 172 7.8 14.8 0.00 0.00 0.00 50 1010.2
20260506004131 75 180 7.0 14.8 0.00 0.00 0.00 49 1010.2
20260506003632 75 188 7.0 17.4 0.00 0.00 0.00 47 1010.1
20260506003357 75 206 8.7 17.4 0.00 0.00 0.00 46 1010.0
20260506002622 76 175 7.8 15.6 0.00 0.00 0.00 45 1009.9
20260506002121 76 225 7.8 14.8 0.00 0.00 0.00 44 1009.8
20260506001619 77 204 7.0 14.8 0.00 0.00 0.00 43 1009.7
20260506001119 77 175 7.0 12.2 0.00 0.00 0.00 43 1009.7
20260506000853 77 182 7.0 17.4 0.00 0.00 0.00 42 1009.6
20260506000119 78 211 7.8 17.4 0.00 0.00 0.00 40 1009.5
20260505235621 78 171 8.7 20.9 0.00 0.00 0.00 39 1009.5
20260505235118 78 207 8.7 20.9 0.00 0.00 0.00 39 1009.6
20260505234617 78 243 8.7 18.2 0.00 0.00 0.00 39 1009.4
20260505234349 78 195 8.7 18.2 0.00 0.00 0.00 39 1009.4
20260505233619 78 191 8.7 17.4 0.00 0.00 0.00 39 1009.3
20260505233118 78 197 8.7 17.4 0.00 0.00 0.00 39 1009.3
20260505232613 79 190 7.0 16.5 0.00 0.00 0.00 39 1009.2
20260505232112 79 154 7.8 14.8 0.00 0.00 0.00 38 1009.1
20260505231613 79 201 8.7 20.0 0.00 0.00 0.00 39 1009.1
20260505231114 79 207 9.6 20.0 0.00 0.00 0.00 38 1009.1
20260505230844 79 220 11.3 24.3 0.00 0.00 0.00 38 1009.1
20260505230344 79 208 12.2 24.3 0.00 0.00 0.00 38 1009.0
20260505225608 80 237 11.3 20.9 0.00 0.00 0.00 37 1008.9
20260505225101 80 200 10.4 20.9 0.00 0.00 0.00 37 1009.0
20260505224556 80 198 11.3 20.9 0.00 0.00 0.00 38 1009.0
20260505224049 80 244 12.2 21.7 0.00 0.00 0.00 37 1009.0
20260505223544 81 213 12.2 22.6 0.00 0.00 0.00 37 1008.8
20260505223037 81 238 11.3 22.6 0.00 0.00 0.00 36 1008.9
20260505222532 81 213 11.3 19.1 0.00 0.00 0.00 36 1008.9
20260505222256 81 245 11.3 19.1 0.00 0.00 0.00 35 1008.9
20260505221519 81 243 11.3 21.7 0.00 0.00 0.00 34 1008.8
20260505221243 82 175 11.3 21.7 0.00 0.00 0.00 34 1008.8
20260505220738 82 194 12.2 24.3 0.00 0.00 0.00 32 1008.9
20260505220001 82 189 13.0 23.5 0.00 0.00 0.00 32 1008.7
20260505215458 82 192 12.2 24.3 0.00 0.00 0.00 31 1008.7
20260505215451 82 191 11.3 20.9 0.00 0.00 0.00 31 1008.7
20260505214443 82 257 12.2 20.9 0.00 0.00 0.00 31 1008.7
20260505213937 82 211 12.2 20.9 0.00 0.00 0.00 30 1008.8
20260505213431 83 153 11.3 20.9 0.00 0.00 0.00 30 1008.8
20260505212925 83 198 11.3 21.7 0.00 0.00 0.00 30 1008.8
20260505212651 83 174 12.2 21.7 0.00 0.00 0.00 29 1008.7
20260505211914 83 232 12.2 28.7 0.00 0.00 0.00 29 1008.8
20260505211638 83 221 13.0 22.6 0.00 0.00 0.00 29 1008.7
20260505210901 83 230 13.0 23.5 0.00 0.00 0.00 29 1008.7
20260505210356 83 224 12.2 23.5 0.00 0.00 0.00 28 1008.5
20260505205849 83 174 11.3 21.7 0.00 0.00 0.00 28 1008.5
20260505205343 83 217 12.2 22.6 0.00 0.00 0.00 27 1008.6
20260505204837 83 261 12.2 22.6 0.00 0.00 0.00 27 1008.4
20260505204332 83 253 13.9 23.5 0.00 0.00 0.00 28 1008.4
20260505203826 83 224 13.9 24.3 0.00 0.00 0.00 27 1008.4
20260505203318 83 107 13.9 29.5 0.00 0.00 0.00 26 1008.5
20260505202817 83 173 13.9 29.5 0.00 0.00 0.00 28 1008.7
20260505202810 83 209 12.2 24.3 0.00 0.00 0.00 28 1008.5
20260505201802 84 265 11.3 21.7 0.00 0.00 0.00 29 1008.5
20260505201255 84 217 13.0 31.3 0.00 0.00 0.00 28 1008.7
20260505200749 84 243 14.8 31.3 0.00 0.00 0.00 28 1008.5
20260505200243 84 219 13.0 26.1 0.00 0.00 0.00 29 1008.6
20260505195737 84 189 12.2 26.1 0.00 0.00 0.00 30 1008.6
20260505195231 84 207 11.3 23.5 0.00 0.00 0.00 31 1008.6
20260505194726 84 229 11.3 26.1 0.00 0.00 0.00 32 1008.6
20260505194219 84 170 11.3 26.1 0.00 0.00 0.00 33 1008.7
20260505193713 84 172 12.2 24.3 0.00 0.00 0.00 32 1008.6
20260505193207 84 163 11.3 24.3 0.00 0.00 0.00 32 1008.7
20260505192932 84 189 10.4 22.6 0.00 0.00 0.00 35 1008.9